Archival Weather

Aeroparque Jorge Newbery

Buenos Aires, Argentina (SABE)

Report from: Thursday, February 22, 2024 10:00 AM -03
Current time: Monday, June 24, 2024 7:49 AM -03

Current weather – Weather history – Daily summaries
Weather forecast

Temperature26.0°C (78.8°F)
Dew point21.0°C (69.8°F)
Winds 7 kts (3.6 m/s, 8.1 mph) Vrb
Winds variableWinds variable from West-Northwest (290°) to North-Northeast (20°)
Clouds Sky clear
Altimeter29.77 in.Hg (1008 mB)
Relative humidity74 %
Density altitude1,784 ft. (544 m)
Remarks Ceiling and visibility OK
Corrected report
No significant changes expected in the next two hours
Flight conditions Visual Meteorological Conditions
Raw dataCOR SABE 221300Z 35007KT 290V020 CAVOK 26/21 Q1008 NOSIG
An error has occurred. This application may no longer respond until reloaded. Reload 🗙